TimeCST,TemperatureF,Dew PointF,Humidity,Sea Level PressureIn,VisibilityMPH,Wind Direction,Wind SpeedMPH,Gust SpeedMPH,PrecipitationIn,Events,Conditions,WindDirDegrees,DateUTC
12:53 AM,37.0,30.0,76,30.33,10.0,SSE,5.8,-,N/A,,Clear,150,2012-11-19 06:53:00
1:53 AM,34.0,30.0,85,30.33,10.0,ESE,6.9,-,N/A,,Clear,120,2012-11-19 07:53:00
2:53 AM,39.9,32.0,73,30.32,10.0,SSE,8.1,-,N/A,,Clear,160,2012-11-19 08:53:00
3:53 AM,41.0,32.0,70,30.31,10.0,SSE,6.9,-,N/A,,Clear,160,2012-11-19 09:53:00
4:53 AM,39.9,32.0,73,30.32,10.0,SSE,3.5,-,N/A,,Clear,160,2012-11-19 10:53:00
5:53 AM,37.0,32.0,82,30.32,8.0,ESE,4.6,-,N/A,,Clear,120,2012-11-19 11:53:00
6:53 AM,37.9,32.0,79,30.32,8.0,Calm,Calm,-,N/A,,Clear,0,2012-11-19 12:53:00
7:53 AM,39.9,34.0,79,30.32,8.0,ESE,4.6,-,N/A,,Clear,120,2012-11-19 13:53:00
8:53 AM,46.0,36.0,68,30.31,9.0,SSE,8.1,-,N/A,,Clear,160,2012-11-19 14:53:00
9:53 AM,48.0,37.9,68,30.32,9.0,South,6.9,-,N/A,,Clear,170,2012-11-19 15:53:00
10:53 AM,55.0,39.0,55,30.29,10.0,South,11.5,-,N/A,,Clear,180,2012-11-19 16:53:00
11:53 AM,57.0,39.0,51,30.26,10.0,South,12.7,-,N/A,,Clear,190,2012-11-19 17:53:00
12:53 PM,57.9,37.9,47,30.25,10.0,SSW,11.5,-,N/A,,Partly Cloudy,210,2012-11-19 18:53:00
1:53 PM,57.0,37.9,49,30.22,10.0,SSW,10.4,-,N/A,,Mostly Cloudy,200,2012-11-19 19:53:00
2:53 PM,57.0,37.0,47,30.21,10.0,SSW,10.4,-,N/A,,Partly Cloudy,210,2012-11-19 20:53:00
3:53 PM,55.0,39.9,57,30.20,10.0,South,10.4,-,N/A,,Overcast,170,2012-11-19 21:53:00
4:53 PM,52.0,39.9,63,30.19,10.0,SSE,6.9,-,N/A,,Overcast,160,2012-11-19 22:53:00
5:53 PM,52.0,41.0,66,30.19,10.0,SE,5.8,-,N/A,,Overcast,140,2012-11-19 23:53:00
6:53 PM,50.0,42.1,74,30.18,10.0,SE,5.8,-,0.00,,Overcast,140,2012-11-20 00:53:00
7:53 PM,50.0,42.1,74,30.17,10.0,SE,6.9,-,N/A,,Overcast,130,2012-11-20 01:53:00
9:53 PM,50.0,41.0,71,30.16,10.0,SE,5.8,-,N/A,,Overcast,140,2012-11-20 03:53:00
10:53 PM,48.0,42.1,80,30.15,9.0,ESE,5.8,-,N/A,,Overcast,120,2012-11-20 04:53:00
11:53 PM,50.0,41.0,71,30.14,10.0,South,5.8,-,N/A,,Overcast,170,2012-11-20 05:53:00